Terminal Aerodrome Forecast
Issued by NWS

Home | Current Version | Previous Version | Text Only | Print | Product List | Glossary On
Versions: 1 2 3 4 5 6 7 8 9 10 11 12 13 14 15 16 17
698
FTUS43 KGRR 240014 AAA
TAFBTL
TAF AMD
KBTL 240014Z 2400/2424 17012G20KT P6SM BKN060 BKN250
     FM240300 12005KT P6SM VCSH OVC035
     FM240900 10005KT 5SM -SHRA BR OVC015
     FM241100 08005KT 4SM -SHRA BR OVC008
     FM241800 07005KT 1 1/2SM BR VCSH OVC007=

USA.gov is the U.S. government's official web portal to all federal, state and local government web resources and services.